Year,Month,Day,Hour,Minute,Value (Times are PST for windspeed in km/hr)
2008,02,07,00,00,2.70
2008,02,07,00,01,6.70
2008,02,07,00,02,5.40
2008,02,07,00,03,3.90
2008,02,07,00,04,3.60
2008,02,07,00,05,5.20
2008,02,07,00,06,4.90
2008,02,07,00,07,2.80
2008,02,07,00,08,1.70
2008,02,07,00,09,10.60
2008,02,07,00,10,5.50
2008,02,07,00,11,6.20
2008,02,07,00,12,3.70
2008,02,07,00,13,3.10
2008,02,07,00,14,6.90
2008,02,07,00,15,3.40
2008,02,07,00,16,2.50
2008,02,07,00,17,1.40
2008,02,07,00,18,1.60
2008,02,07,00,19,3.70
2008,02,07,00,20,1.90
2008,02,07,00,21,2.50
2008,02,07,00,22,3.00
2008,02,07,00,23,2.40
2008,02,07,00,24,3.60
2008,02,07,00,25,2.50
2008,02,07,00,26,2.40
2008,02,07,00,27,3.40
2008,02,07,00,28,7.70
2008,02,07,00,29,5.00
2008,02,07,00,30,2.10
2008,02,07,00,31,2.60
2008,02,07,00,32,3.50
2008,02,07,00,33,1.10
2008,02,07,00,34,2.10
2008,02,07,00,35,3.20
2008,02,07,00,36,2.20
2008,02,07,00,37,2.90
2008,02,07,00,38,7.50
2008,02,07,00,39,2.40
2008,02,07,00,40,2.60
2008,02,07,00,41,0.00
2008,02,07,00,42,1.30
2008,02,07,00,43,0.30
2008,02,07,00,44,0.00
2008,02,07,00,45,2.10
2008,02,07,00,46,1.40
2008,02,07,00,47,0.50
2008,02,07,00,48,0.40
2008,02,07,00,49,0.10
2008,02,07,00,50,0.00
2008,02,07,00,51,0.00
2008,02,07,00,52,0.00
2008,02,07,00,53,0.00
2008,02,07,00,54,0.30
2008,02,07,00,55,1.50
2008,02,07,00,56,1.90
2008,02,07,00,57,0.40
2008,02,07,00,58,0.10
2008,02,07,00,59,2.70
2008,02,07,01,00,2.20
2008,02,07,01,01,0.50
2008,02,07,01,02,0.30
2008,02,07,01,03,0.00
2008,02,07,01,04,0.00
2008,02,07,01,05,0.00
2008,02,07,01,06,0.30
2008,02,07,01,07,0.40
2008,02,07,01,08,0.00
2008,02,07,01,09,0.00
2008,02,07,01,10,3.10
2008,02,07,01,11,1.40
2008,02,07,01,12,0.00
2008,02,07,01,13,0.10
2008,02,07,01,14,2.30
2008,02,07,01,15,1.00
2008,02,07,01,16,1.20
2008,02,07,01,17,2.90
2008,02,07,01,18,3.30
2008,02,07,01,19,0.70
2008,02,07,01,20,1.20
2008,02,07,01,21,0.50
2008,02,07,01,22,0.10
2008,02,07,01,23,0.00
2008,02,07,01,24,0.40
2008,02,07,01,25,2.10
2008,02,07,01,26,0.00
2008,02,07,01,27,0.60
2008,02,07,01,28,5.30
2008,02,07,01,29,4.00
2008,02,07,01,30,1.20
2008,02,07,01,31,0.00
2008,02,07,01,32,0.30
2008,02,07,01,33,0.40
2008,02,07,01,34,2.90
2008,02,07,01,35,2.60
2008,02,07,01,36,3.20
2008,02,07,01,37,1.60
2008,02,07,01,38,0.80
2008,02,07,01,39,0.30
2008,02,07,01,40,0.10
2008,02,07,01,41,0.30
2008,02,07,01,42,0.20
2008,02,07,01,43,0.10
2008,02,07,01,44,3.80
2008,02,07,01,45,2.40
2008,02,07,01,46,2.50
2008,02,07,01,47,2.60
2008,02,07,01,48,0.00
2008,02,07,01,49,0.10
2008,02,07,01,50,0.00
2008,02,07,01,51,0.00
2008,02,07,01,52,0.00
2008,02,07,01,53,0.50
2008,02,07,01,54,1.40
2008,02,07,01,55,3.30
2008,02,07,01,56,4.20
2008,02,07,01,57,3.70
2008,02,07,01,58,4.40
2008,02,07,01,59,2.50
2008,02,07,02,00,1.00
2008,02,07,02,01,0.10
2008,02,07,02,02,0.40
2008,02,07,02,03,2.10
2008,02,07,02,04,1.10
2008,02,07,02,05,2.70
2008,02,07,02,06,0.90
2008,02,07,02,07,0.00
2008,02,07,02,08,0.00
2008,02,07,02,09,0.00
2008,02,07,02,10,0.10
2008,02,07,02,11,3.00
2008,02,07,02,12,6.30
2008,02,07,02,13,7.00
2008,02,07,02,14,7.30
2008,02,07,02,15,1.10
2008,02,07,02,16,2.50
2008,02,07,02,17,3.90
2008,02,07,02,18,3.20
2008,02,07,02,19,4.30
2008,02,07,02,20,2.60
2008,02,07,02,21,4.90
2008,02,07,02,22,3.70
2008,02,07,02,23,4.90
2008,02,07,02,24,2.30
2008,02,07,02,25,3.60
2008,02,07,02,26,1.50
2008,02,07,02,27,1.60
2008,02,07,02,28,0.30
2008,02,07,02,29,0.00
2008,02,07,02,30,1.50
2008,02,07,02,31,3.70
2008,02,07,02,32,1.30
2008,02,07,02,33,0.00
2008,02,07,02,34,2.30
2008,02,07,02,35,4.30
2008,02,07,02,36,2.90
2008,02,07,02,37,2.90
2008,02,07,02,38,0.90
2008,02,07,02,39,0.50
2008,02,07,02,40,1.10
2008,02,07,02,41,3.50
2008,02,07,02,42,4.90
2008,02,07,02,43,3.40
2008,02,07,02,44,0.60
2008,02,07,02,45,0.00
2008,02,07,02,46,0.00
2008,02,07,02,47,3.60
2008,02,07,02,48,4.70
2008,02,07,02,49,1.50
2008,02,07,02,50,0.20
2008,02,07,02,51,0.50
2008,02,07,02,52,2.10
2008,02,07,02,53,2.30
2008,02,07,02,54,2.90
2008,02,07,02,55,3.10
2008,02,07,02,56,2.80
2008,02,07,02,57,3.00
2008,02,07,02,58,3.50
2008,02,07,02,59,2.30
2008,02,07,03,00,2.30
2008,02,07,03,01,5.10
2008,02,07,03,02,4.50
2008,02,07,03,03,3.50
2008,02,07,03,04,3.90
2008,02,07,03,05,3.00
2008,02,07,03,06,3.40
2008,02,07,03,07,3.00
2008,02,07,03,08,2.10
2008,02,07,03,09,0.80
2008,02,07,03,10,0.20
2008,02,07,03,11,1.90
2008,02,07,03,12,2.20
2008,02,07,03,13,2.00
2008,02,07,03,14,0.70
2008,02,07,03,15,0.50
2008,02,07,03,16,5.80
2008,02,07,03,17,6.40
2008,02,07,03,18,6.10
2008,02,07,03,19,2.30
2008,02,07,03,20,0.10
2008,02,07,03,21,0.10
2008,02,07,03,22,0.00
2008,02,07,03,23,0.00
2008,02,07,03,24,0.70
2008,02,07,03,25,2.10
2008,02,07,03,26,3.60
2008,02,07,03,27,4.40
2008,02,07,03,28,4.70
2008,02,07,03,29,2.70
2008,02,07,03,30,0.00
2008,02,07,03,31,2.80
2008,02,07,03,32,5.50
2008,02,07,03,33,2.50
2008,02,07,03,34,3.20
2008,02,07,03,35,4.50
2008,02,07,03,36,2.90
2008,02,07,03,37,4.50
2008,02,07,03,38,6.90
2008,02,07,03,39,4.70
2008,02,07,03,40,3.80
2008,02,07,03,41,3.10
2008,02,07,03,42,2.60
2008,02,07,03,43,2.30
2008,02,07,03,44,0.40
2008,02,07,03,45,0.10
2008,02,07,03,46,2.90
2008,02,07,03,47,3.60
2008,02,07,03,48,1.00
2008,02,07,03,49,0.00
2008,02,07,03,50,0.10
2008,02,07,03,51,3.40
2008,02,07,03,52,2.30
2008,02,07,03,53,2.00
2008,02,07,03,54,2.90
2008,02,07,03,55,0.90
2008,02,07,03,56,2.80
2008,02,07,03,57,0.80
2008,02,07,03,58,0.00
2008,02,07,03,59,0.00
2008,02,07,04,00,0.00
2008,02,07,04,01,0.00
2008,02,07,04,02,1.30
2008,02,07,04,03,3.70
2008,02,07,04,04,7.30
2008,02,07,04,05,6.80
2008,02,07,04,06,6.80
2008,02,07,04,07,6.00
2008,02,07,04,08,5.50
2008,02,07,04,09,6.20
2008,02,07,04,10,4.70
2008,02,07,04,11,5.90
2008,02,07,04,12,5.10
2008,02,07,04,13,2.50
2008,02,07,04,14,1.70
2008,02,07,04,15,3.30
2008,02,07,04,16,4.90
2008,02,07,04,17,6.00
2008,02,07,04,18,5.10
2008,02,07,04,19,3.70
2008,02,07,04,20,4.10
2008,02,07,04,21,4.60
2008,02,07,04,22,4.60
2008,02,07,04,23,3.50
2008,02,07,04,24,2.20
2008,02,07,04,25,0.10
2008,02,07,04,26,0.00
2008,02,07,04,27,0.00
2008,02,07,04,28,0.00
2008,02,07,04,29,0.00
2008,02,07,04,30,1.10
2008,02,07,04,31,0.00
2008,02,07,04,32,0.00
2008,02,07,04,33,0.00
2008,02,07,04,34,0.00
2008,02,07,04,35,2.40
2008,02,07,04,36,4.90
2008,02,07,04,37,3.00
2008,02,07,04,38,2.00
2008,02,07,04,39,3.10
2008,02,07,04,40,3.10
2008,02,07,04,41,1.20
2008,02,07,04,42,0.30
2008,02,07,04,43,2.00
2008,02,07,04,44,1.70
2008,02,07,04,45,0.50
2008,02,07,04,46,0.00
2008,02,07,04,47,0.00
2008,02,07,04,48,0.00
2008,02,07,04,49,0.00
2008,02,07,04,50,0.00
2008,02,07,04,51,0.00
2008,02,07,04,52,0.00
2008,02,07,04,53,0.00
2008,02,07,04,54,0.00
2008,02,07,04,55,0.00
2008,02,07,04,56,0.00
2008,02,07,04,57,0.00
2008,02,07,04,58,0.00
2008,02,07,04,59,0.80
2008,02,07,05,00,0.60
2008,02,07,05,01,0.10
2008,02,07,05,02,1.00
2008,02,07,05,03,0.00
2008,02,07,05,04,0.60
2008,02,07,05,05,2.70
2008,02,07,05,06,2.90
2008,02,07,05,07,2.90
2008,02,07,05,08,1.70
2008,02,07,05,09,0.90
2008,02,07,05,10,0.00
2008,02,07,05,11,0.00
2008,02,07,05,12,0.00
2008,02,07,05,13,2.30
2008,02,07,05,14,2.40
2008,02,07,05,15,3.60
2008,02,07,05,16,3.00
2008,02,07,05,17,0.60
2008,02,07,05,18,1.50
2008,02,07,05,19,0.20
2008,02,07,05,20,0.00
2008,02,07,05,21,0.00
2008,02,07,05,22,0.00
2008,02,07,05,23,0.00
2008,02,07,05,24,0.00
2008,02,07,05,25,0.00
2008,02,07,05,26,0.10
2008,02,07,05,27,0.00
2008,02,07,05,28,0.00
2008,02,07,05,29,0.00
2008,02,07,05,30,0.00
2008,02,07,05,31,1.90
2008,02,07,05,32,2.20
2008,02,07,05,33,1.00
2008,02,07,05,34,0.00
2008,02,07,05,35,0.00
2008,02,07,05,36,0.00
2008,02,07,05,37,0.00
2008,02,07,05,38,0.10
2008,02,07,05,39,2.70
2008,02,07,05,40,1.00
2008,02,07,05,41,1.10
2008,02,07,05,42,1.10
2008,02,07,05,43,0.60
2008,02,07,05,44,0.00
2008,02,07,05,45,0.00
2008,02,07,05,46,0.00
2008,02,07,05,47,0.10
2008,02,07,05,48,2.30
2008,02,07,05,49,1.20
2008,02,07,05,50,1.30
2008,02,07,05,51,1.30
2008,02,07,05,52,1.10
2008,02,07,05,53,0.20
2008,02,07,05,54,0.70
2008,02,07,05,55,1.10
2008,02,07,05,56,1.50
2008,02,07,05,57,3.20
2008,02,07,05,58,3.20
2008,02,07,05,59,4.20
2008,02,07,06,00,3.30
2008,02,07,06,01,1.90
2008,02,07,06,02,1.30
2008,02,07,06,03,1.80
2008,02,07,06,04,0.60
2008,02,07,06,05,0.20
2008,02,07,06,06,0.10
2008,02,07,06,07,0.00
2008,02,07,06,08,0.00
2008,02,07,06,09,1.40
2008,02,07,06,10,1.50
2008,02,07,06,11,0.00
2008,02,07,06,12,0.10
2008,02,07,06,13,3.20
2008,02,07,06,14,1.60
2008,02,07,06,15,0.30
2008,02,07,06,16,0.00
2008,02,07,06,17,1.30
2008,02,07,06,18,1.60
2008,02,07,06,19,1.80
2008,02,07,06,20,1.90
2008,02,07,06,21,2.20
2008,02,07,06,22,1.40
2008,02,07,06,23,1.70
2008,02,07,06,24,0.80
2008,02,07,06,25,0.00
2008,02,07,06,26,0.70
2008,02,07,06,27,2.00
2008,02,07,06,28,0.80
2008,02,07,06,29,1.30
2008,02,07,06,30,2.00
2008,02,07,06,31,1.10
2008,02,07,06,32,1.00
2008,02,07,06,33,1.50
2008,02,07,06,34,0.50
2008,02,07,06,35,1.30
2008,02,07,06,36,1.00
2008,02,07,06,37,2.10
2008,02,07,06,38,0.40
2008,02,07,06,39,0.00
2008,02,07,06,40,2.60
2008,02,07,06,41,0.30
2008,02,07,06,42,0.30
2008,02,07,06,43,0.40
2008,02,07,06,44,0.20
2008,02,07,06,45,1.80
2008,02,07,06,46,0.50
2008,02,07,06,47,1.90
2008,02,07,06,48,2.00
2008,02,07,06,49,1.40
2008,02,07,06,50,2.50
2008,02,07,06,51,7.40
2008,02,07,06,52,4.00
2008,02,07,06,53,3.40
2008,02,07,06,54,4.60
2008,02,07,06,55,3.10
2008,02,07,06,56,4.40
2008,02,07,06,57,3.40
2008,02,07,06,58,1.60
2008,02,07,06,59,1.40
2008,02,07,07,00,0.80
2008,02,07,07,01,1.90
2008,02,07,07,02,3.10
2008,02,07,07,03,2.10
2008,02,07,07,04,2.10
2008,02,07,07,05,2.30
2008,02,07,07,06,2.80
2008,02,07,07,07,1.20
2008,02,07,07,08,2.40
2008,02,07,07,09,3.90
2008,02,07,07,10,2.40
2008,02,07,07,11,2.60
2008,02,07,07,12,2.90
2008,02,07,07,13,0.80
2008,02,07,07,14,1.60
2008,02,07,07,15,4.40
2008,02,07,07,16,4.00
2008,02,07,07,17,3.20
2008,02,07,07,18,3.00
2008,02,07,07,19,2.70
2008,02,07,07,20,3.80
2008,02,07,07,21,2.90
2008,02,07,07,22,3.00
2008,02,07,07,23,2.30
2008,02,07,07,24,3.20
2008,02,07,07,25,2.70
2008,02,07,07,26,2.20
2008,02,07,07,27,3.10
2008,02,07,07,28,2.30
2008,02,07,07,29,2.50
2008,02,07,07,30,3.00
2008,02,07,07,31,2.90
2008,02,07,07,32,2.70
2008,02,07,07,33,2.60
2008,02,07,07,34,2.60
2008,02,07,07,35,1.80
2008,02,07,07,36,0.50
2008,02,07,07,37,0.90
2008,02,07,07,38,1.90
2008,02,07,07,39,2.70
2008,02,07,07,40,3.60
2008,02,07,07,41,2.90
2008,02,07,07,42,4.90
2008,02,07,07,43,4.30
2008,02,07,07,44,3.40
2008,02,07,07,45,2.80
2008,02,07,07,46,1.50
2008,02,07,07,47,0.50
2008,02,07,07,48,0.70
2008,02,07,07,49,1.80
2008,02,07,07,50,1.30
2008,02,07,07,51,2.30
2008,02,07,07,52,2.90
2008,02,07,07,53,4.70
2008,02,07,07,54,3.40
2008,02,07,07,55,3.50
2008,02,07,07,56,4.30
2008,02,07,07,57,4.30
2008,02,07,07,58,2.40
2008,02,07,07,59,5.00
2008,02,07,08,00,5.70
2008,02,07,08,01,4.70
2008,02,07,08,02,5.00
2008,02,07,08,03,4.30
2008,02,07,08,04,4.70
2008,02,07,08,05,5.70
2008,02,07,08,06,6.40
2008,02,07,08,07,4.00
2008,02,07,08,08,5.60
2008,02,07,08,09,5.60
2008,02,07,08,10,3.70
2008,02,07,08,11,3.10
2008,02,07,08,12,3.40
2008,02,07,08,13,2.70
2008,02,07,08,14,3.60
2008,02,07,08,15,3.90
2008,02,07,08,16,4.50
2008,02,07,08,17,4.70
2008,02,07,08,18,2.90
2008,02,07,08,19,4.00
2008,02,07,08,20,4.10
2008,02,07,08,21,4.30
2008,02,07,08,22,4.30
2008,02,07,08,23,5.40
2008,02,07,08,24,3.10
2008,02,07,08,25,3.40
2008,02,07,08,26,4.90
2008,02,07,08,27,4.80
2008,02,07,08,28,3.60
2008,02,07,08,29,3.50
2008,02,07,08,30,4.10
2008,02,07,08,31,2.80
2008,02,07,08,32,3.90
2008,02,07,08,33,3.50
2008,02,07,08,34,4.20
2008,02,07,08,35,2.70
2008,02,07,08,36,1.90
2008,02,07,08,37,3.90
2008,02,07,08,38,3.30
2008,02,07,08,39,4.20
2008,02,07,08,40,4.50
2008,02,07,08,41,2.70
2008,02,07,08,42,1.90
2008,02,07,08,43,1.40
2008,02,07,08,44,0.30
2008,02,07,08,45,3.50
2008,02,07,08,46,4.00
2008,02,07,08,47,2.80
2008,02,07,08,48,2.70
2008,02,07,08,49,1.70
2008,02,07,08,50,1.90
2008,02,07,08,51,2.40
2008,02,07,08,52,2.30
2008,02,07,08,53,2.40
2008,02,07,08,54,3.10
2008,02,07,08,55,3.30
2008,02,07,08,56,3.40
2008,02,07,08,57,4.10
2008,02,07,08,58,3.70
2008,02,07,08,59,4.00
2008,02,07,09,00,3.10
2008,02,07,09,01,2.90
2008,02,07,09,02,4.00
2008,02,07,09,03,3.90
2008,02,07,09,04,2.40
2008,02,07,09,05,2.10
2008,02,07,09,06,1.80
2008,02,07,09,07,2.90
2008,02,07,09,08,1.80
2008,02,07,09,09,2.20
2008,02,07,09,10,3.50
2008,02,07,09,11,4.10
2008,02,07,09,12,3.40
2008,02,07,09,13,4.90
2008,02,07,09,14,3.40
2008,02,07,09,15,2.80
2008,02,07,09,16,0.60
2008,02,07,09,17,1.40
2008,02,07,09,18,1.70
2008,02,07,09,19,3.00
2008,02,07,09,20,2.30
2008,02,07,09,21,1.00
2008,02,07,09,22,1.70
2008,02,07,09,23,2.20
2008,02,07,09,24,2.30
2008,02,07,09,25,2.80
2008,02,07,09,26,3.60
2008,02,07,09,27,2.40
2008,02,07,09,28,1.50
2008,02,07,09,29,1.00
2008,02,07,09,30,1.40
2008,02,07,09,31,1.70
2008,02,07,09,32,2.60
2008,02,07,09,33,0.60
2008,02,07,09,34,0.50
2008,02,07,09,35,0.00
2008,02,07,09,36,0.30
2008,02,07,09,37,0.00
2008,02,07,09,38,1.20
2008,02,07,09,39,1.70
2008,02,07,09,40,0.00
2008,02,07,09,41,0.00
2008,02,07,09,42,0.10
2008,02,07,09,43,0.00
2008,02,07,09,44,0.50
2008,02,07,09,45,2.80
2008,02,07,09,46,0.90
2008,02,07,09,47,0.40
2008,02,07,09,48,3.10
2008,02,07,09,49,3.30
2008,02,07,09,50,2.80
2008,02,07,09,51,2.00
2008,02,07,09,52,1.90
2008,02,07,09,53,2.50
2008,02,07,09,54,3.40
2008,02,07,09,55,3.90
2008,02,07,09,56,2.90
2008,02,07,09,57,2.70
2008,02,07,09,58,0.20
2008,02,07,09,59,0.00
2008,02,07,10,00,0.90
2008,02,07,10,01,2.80
2008,02,07,10,02,1.90
2008,02,07,10,03,0.50
2008,02,07,10,04,1.90
2008,02,07,10,05,4.80
2008,02,07,10,06,5.00
2008,02,07,10,07,4.30
2008,02,07,10,08,4.90
2008,02,07,10,09,3.60
2008,02,07,10,10,3.80
2008,02,07,10,11,1.70
2008,02,07,10,12,4.40
2008,02,07,10,13,4.20
2008,02,07,10,14,3.60
2008,02,07,10,15,3.70
2008,02,07,10,16,5.00
2008,02,07,10,17,2.00
2008,02,07,10,18,2.10
2008,02,07,10,19,2.50
2008,02,07,10,20,1.90
2008,02,07,10,21,1.80
2008,02,07,10,22,2.40
2008,02,07,10,23,2.00
2008,02,07,10,24,1.80
2008,02,07,10,25,0.90
2008,02,07,10,26,0.30
2008,02,07,10,27,0.00
2008,02,07,10,28,0.00
2008,02,07,10,29,2.40
2008,02,07,10,30,2.50
2008,02,07,10,31,1.20
2008,02,07,10,32,0.80
2008,02,07,10,33,2.10
2008,02,07,10,34,1.90
2008,02,07,10,35,2.30
2008,02,07,10,36,0.40
2008,02,07,10,37,0.00
2008,02,07,10,38,0.00
2008,02,07,10,39,0.10
2008,02,07,10,40,0.10
2008,02,07,10,41,0.10
2008,02,07,10,42,0.10
2008,02,07,10,43,0.00
2008,02,07,10,44,0.00
2008,02,07,10,45,0.00
2008,02,07,10,46,1.10
2008,02,07,10,47,0.60
2008,02,07,10,48,0.00
2008,02,07,10,49,0.30
2008,02,07,10,50,0.00
2008,02,07,10,51,0.20
2008,02,07,10,52,2.90
2008,02,07,10,53,1.80
2008,02,07,10,54,0.90
2008,02,07,10,55,0.10
2008,02,07,10,56,0.00
2008,02,07,10,57,0.20
2008,02,07,10,58,0.80
2008,02,07,10,59,3.00
2008,02,07,11,00,3.10
2008,02,07,11,01,4.90
2008,02,07,11,02,4.00
2008,02,07,11,03,2.50
2008,02,07,11,04,2.00
2008,02,07,11,05,2.00
2008,02,07,11,06,1.20
2008,02,07,11,07,0.00
2008,02,07,11,08,0.10
2008,02,07,11,09,0.70
2008,02,07,11,10,0.00
2008,02,07,11,11,0.00
2008,02,07,11,12,0.00
2008,02,07,11,13,2.50
2008,02,07,11,14,3.80
2008,02,07,11,15,3.00
2008,02,07,11,16,2.20
2008,02,07,11,17,1.10
2008,02,07,11,18,1.40
2008,02,07,11,19,1.60
2008,02,07,11,20,0.00
2008,02,07,11,21,0.00
2008,02,07,11,22,0.30
2008,02,07,11,23,3.50
2008,02,07,11,24,4.60
2008,02,07,11,25,2.70
2008,02,07,11,26,4.60
2008,02,07,11,27,2.90
2008,02,07,11,28,0.60
2008,02,07,11,29,0.40
2008,02,07,11,30,1.60
2008,02,07,11,31,2.60
2008,02,07,11,32,2.40
2008,02,07,11,33,1.10
2008,02,07,11,34,2.00
2008,02,07,11,35,0.50
2008,02,07,11,36,0.30
2008,02,07,11,37,0.10
2008,02,07,11,38,0.00
2008,02,07,11,39,0.60
2008,02,07,11,40,3.10
2008,02,07,11,41,2.10
2008,02,07,11,42,0.70
2008,02,07,11,43,2.30
2008,02,07,11,44,2.60
2008,02,07,11,45,0.80
2008,02,07,11,46,0.80
2008,02,07,11,47,0.40
2008,02,07,11,48,0.80
2008,02,07,11,49,3.20
2008,02,07,11,50,2.40
2008,02,07,11,51,0.30
2008,02,07,11,52,1.20
2008,02,07,11,53,1.20
2008,02,07,11,54,0.70
2008,02,07,11,55,1.80
2008,02,07,11,56,2.30
2008,02,07,11,57,1.10
2008,02,07,11,58,3.60
2008,02,07,11,59,2.50
2008,02,07,12,00,1.70
2008,02,07,12,01,1.00
2008,02,07,12,02,0.00
2008,02,07,12,03,0.80
2008,02,07,12,04,0.10
2008,02,07,12,05,0.10
2008,02,07,12,06,1.70
2008,02,07,12,07,0.20
2008,02,07,12,08,0.30
2008,02,07,12,09,2.30
2008,02,07,12,10,2.80
2008,02,07,12,11,2.10
2008,02,07,12,12,0.90
2008,02,07,12,13,0.20
2008,02,07,12,14,0.20
2008,02,07,12,15,0.20
2008,02,07,12,16,0.00
2008,02,07,12,17,0.50
2008,02,07,12,18,0.30
2008,02,07,12,19,1.10
2008,02,07,12,20,0.00
2008,02,07,12,21,1.70
2008,02,07,12,22,3.20
2008,02,07,12,23,4.70
2008,02,07,12,24,5.80
2008,02,07,12,25,6.20
2008,02,07,12,26,6.20
2008,02,07,12,27,2.20
2008,02,07,12,28,4.20
2008,02,07,12,29,3.50
2008,02,07,12,30,2.20
2008,02,07,12,31,6.80
2008,02,07,12,32,3.70
2008,02,07,12,33,3.00
2008,02,07,12,34,1.00
2008,02,07,12,35,0.70
2008,02,07,12,36,1.00
2008,02,07,12,37,2.00
2008,02,07,12,38,2.40
2008,02,07,12,39,5.00
2008,02,07,12,40,2.40
2008,02,07,12,41,1.10
2008,02,07,12,42,1.00
2008,02,07,12,43,3.40
2008,02,07,12,44,2.80
2008,02,07,12,45,3.50
2008,02,07,12,46,3.60
2008,02,07,12,47,1.90
2008,02,07,12,48,3.20
2008,02,07,12,49,2.80
2008,02,07,12,50,3.50
2008,02,07,12,51,1.90
2008,02,07,12,52,1.10
2008,02,07,12,53,0.90
2008,02,07,12,54,0.90
2008,02,07,12,55,3.30
2008,02,07,12,56,2.20
2008,02,07,12,57,2.40
2008,02,07,12,58,3.10
2008,02,07,12,59,4.10
2008,02,07,13,00,4.40
2008,02,07,13,01,4.10
2008,02,07,13,02,2.20
2008,02,07,13,03,1.90
2008,02,07,13,04,4.00
2008,02,07,13,05,4.70
2008,02,07,13,06,5.10
2008,02,07,13,07,1.10
2008,02,07,13,08,0.30
2008,02,07,13,09,0.60
2008,02,07,13,10,0.10
2008,02,07,13,11,0.60
2008,02,07,13,12,1.40
2008,02,07,13,13,1.30
2008,02,07,13,14,0.20
2008,02,07,13,15,0.10
2008,02,07,13,16,0.40
2008,02,07,13,17,1.30
2008,02,07,13,18,0.70
2008,02,07,13,19,1.80
2008,02,07,13,20,0.30
2008,02,07,13,21,0.00
2008,02,07,13,22,0.00
2008,02,07,13,23,0.50
2008,02,07,13,24,1.50
2008,02,07,13,25,3.80
2008,02,07,13,26,2.40
2008,02,07,13,27,1.50
2008,02,07,13,28,0.40
2008,02,07,13,29,0.00
2008,02,07,13,30,0.00
2008,02,07,13,31,0.00
2008,02,07,13,32,0.30
2008,02,07,13,33,0.00
2008,02,07,13,34,0.60
2008,02,07,13,35,2.20
2008,02,07,13,36,3.70
2008,02,07,13,37,1.10
2008,02,07,13,38,0.60
2008,02,07,13,39,2.30
2008,02,07,13,40,0.80
2008,02,07,13,41,1.60
2008,02,07,13,42,0.40
2008,02,07,13,43,0.40
2008,02,07,13,44,0.00
2008,02,07,13,45,0.10
2008,02,07,13,46,0.10
2008,02,07,13,47,0.30
2008,02,07,13,48,0.10
2008,02,07,13,49,0.00
2008,02,07,13,50,0.00
2008,02,07,13,51,0.00
2008,02,07,13,52,1.50
2008,02,07,13,53,1.50
2008,02,07,13,54,2.00
2008,02,07,13,55,0.10
2008,02,07,13,56,0.20
2008,02,07,13,57,0.00
2008,02,07,13,58,1.70
2008,02,07,13,59,0.40
2008,02,07,14,00,1.60
2008,02,07,14,01,0.30
2008,02,07,14,02,0.00
2008,02,07,14,03,0.00
2008,02,07,14,04,0.30
2008,02,07,14,05,1.30
2008,02,07,14,06,1.60
2008,02,07,14,07,0.70
2008,02,07,14,08,0.60
2008,02,07,14,09,0.10
2008,02,07,14,10,0.10
2008,02,07,14,11,0.00
2008,02,07,14,12,0.00
2008,02,07,14,13,0.00
2008,02,07,14,14,0.00
2008,02,07,14,15,0.10
2008,02,07,14,16,0.90
2008,02,07,14,17,0.00
2008,02,07,14,18,1.50
2008,02,07,14,19,2.90
2008,02,07,14,20,3.40
2008,02,07,14,21,4.20
2008,02,07,14,22,4.80
2008,02,07,14,23,1.80
2008,02,07,14,24,0.20
2008,02,07,14,25,0.00
2008,02,07,14,26,0.00
2008,02,07,14,27,0.00
2008,02,07,14,28,0.00
2008,02,07,14,29,0.30
2008,02,07,14,30,1.50
2008,02,07,14,31,1.60
2008,02,07,14,32,0.20
2008,02,07,14,33,1.80
2008,02,07,14,34,0.40
2008,02,07,14,35,0.30
2008,02,07,14,36,0.00
2008,02,07,14,37,0.10
2008,02,07,14,38,2.20
2008,02,07,14,39,4.30
2008,02,07,14,40,3.00
2008,02,07,14,41,1.30
2008,02,07,14,42,1.80
2008,02,07,14,43,1.40
2008,02,07,14,44,0.80
2008,02,07,14,45,0.20
2008,02,07,14,46,2.90
2008,02,07,14,47,3.50
2008,02,07,14,48,5.50
2008,02,07,14,49,5.80
2008,02,07,14,50,4.30
2008,02,07,14,51,2.80
2008,02,07,14,52,1.00
2008,02,07,14,53,3.00
2008,02,07,14,54,3.00
2008,02,07,14,55,5.20
2008,02,07,14,56,6.10
2008,02,07,14,57,4.20
2008,02,07,14,58,6.80
2008,02,07,14,59,4.00
2008,02,07,15,00,5.60
2008,02,07,15,01,6.20
2008,02,07,15,02,9.40
2008,02,07,15,03,7.80
2008,02,07,15,04,5.30
2008,02,07,15,05,8.00
2008,02,07,15,06,6.40
2008,02,07,15,07,5.60
2008,02,07,15,08,8.90
2008,02,07,15,09,10.90
2008,02,07,15,10,14.90
2008,02,07,15,11,11.30
2008,02,07,15,12,7.90
2008,02,07,15,13,15.30
2008,02,07,15,14,9.70
2008,02,07,15,15,12.40
2008,02,07,15,16,9.50
2008,02,07,15,17,9.80
2008,02,07,15,18,9.10
2008,02,07,15,19,8.50
2008,02,07,15,20,7.50
2008,02,07,15,21,9.20
2008,02,07,15,22,11.90
2008,02,07,15,23,10.60
2008,02,07,15,24,11.00
2008,02,07,15,25,8.50
2008,02,07,15,26,9.00
2008,02,07,15,27,6.40
2008,02,07,15,28,6.90
2008,02,07,15,29,7.10
2008,02,07,15,30,11.10
2008,02,07,15,31,10.10
2008,02,07,15,32,10.00
2008,02,07,15,33,10.00
2008,02,07,15,34,8.20
2008,02,07,15,35,6.40
2008,02,07,15,36,8.30
2008,02,07,15,37,6.30
2008,02,07,15,38,5.10
2008,02,07,15,39,12.00
2008,02,07,15,40,9.40
2008,02,07,15,41,7.60
2008,02,07,15,42,10.80
2008,02,07,15,43,6.70
2008,02,07,15,44,9.70
2008,02,07,15,45,12.40
2008,02,07,15,46,15.00
2008,02,07,15,47,11.70
2008,02,07,15,48,5.40
2008,02,07,15,49,9.10
2008,02,07,15,50,10.40
2008,02,07,15,51,7.20
2008,02,07,15,52,5.50
2008,02,07,15,53,6.70
2008,02,07,15,54,7.60
2008,02,07,15,55,6.20
2008,02,07,15,56,7.00
2008,02,07,15,57,9.20
2008,02,07,15,58,7.60
2008,02,07,15,59,8.60
2008,02,07,16,00,7.90
2008,02,07,16,01,7.20
2008,02,07,16,02,7.70
2008,02,07,16,03,7.90
2008,02,07,16,04,9.30
2008,02,07,16,05,7.30
2008,02,07,16,06,5.70
2008,02,07,16,07,5.60
2008,02,07,16,08,4.90
2008,02,07,16,09,5.30
2008,02,07,16,10,5.80
2008,02,07,16,11,5.90
2008,02,07,16,12,10.00
2008,02,07,16,13,12.20
2008,02,07,16,14,6.90
2008,02,07,16,15,4.40
2008,02,07,16,16,7.40
2008,02,07,16,17,6.40
2008,02,07,16,18,10.70
2008,02,07,16,19,10.00
2008,02,07,16,20,11.70
2008,02,07,16,21,14.50
2008,02,07,16,22,14.10
2008,02,07,16,23,11.60
2008,02,07,16,24,10.50
2008,02,07,16,25,10.10
2008,02,07,16,26,7.40
2008,02,07,16,27,8.80
2008,02,07,16,28,9.00
2008,02,07,16,29,14.50
2008,02,07,16,30,13.80
2008,02,07,16,31,8.70
2008,02,07,16,32,6.80
2008,02,07,16,33,4.70
2008,02,07,16,34,7.80
2008,02,07,16,35,7.00
2008,02,07,16,36,8.00
2008,02,07,16,37,7.60
2008,02,07,16,38,6.80
2008,02,07,16,39,3.70
2008,02,07,16,40,4.50
2008,02,07,16,41,6.60
2008,02,07,16,42,5.20
2008,02,07,16,43,4.60
2008,02,07,16,44,5.60
2008,02,07,16,45,6.00
2008,02,07,16,46,6.20
2008,02,07,16,47,6.00
2008,02,07,16,48,4.30
2008,02,07,16,49,0.40
2008,02,07,16,50,0.00
2008,02,07,16,51,1.40
2008,02,07,16,52,4.10
2008,02,07,16,53,5.40
2008,02,07,16,54,5.00
2008,02,07,16,55,4.00
2008,02,07,16,56,2.80
2008,02,07,16,57,3.20
2008,02,07,16,58,3.90
2008,02,07,16,59,4.10
2008,02,07,17,00,5.00
2008,02,07,17,01,4.00
2008,02,07,17,02,0.00
2008,02,07,17,03,0.10
2008,02,07,17,04,0.90
2008,02,07,17,05,0.10
2008,02,07,17,06,0.40
2008,02,07,17,07,2.00
2008,02,07,17,08,1.30
2008,02,07,17,09,0.30
2008,02,07,17,10,0.00
2008,02,07,17,11,2.80
2008,02,07,17,12,3.40
2008,02,07,17,13,1.90
2008,02,07,17,14,0.10
2008,02,07,17,15,4.80
2008,02,07,17,16,9.20
2008,02,07,17,17,2.30
2008,02,07,17,18,0.10
2008,02,07,17,19,0.00
2008,02,07,17,20,2.80
2008,02,07,17,21,3.50
2008,02,07,17,22,5.00
2008,02,07,17,23,2.70
2008,02,07,17,24,2.10
2008,02,07,17,25,1.90
2008,02,07,17,26,1.50
2008,02,07,17,27,0.30
2008,02,07,17,28,0.00
2008,02,07,17,29,0.60
2008,02,07,17,30,1.40
2008,02,07,17,31,2.50
2008,02,07,17,32,1.40
2008,02,07,17,33,0.20
2008,02,07,17,34,0.50
2008,02,07,17,35,0.10
2008,02,07,17,36,0.00
2008,02,07,17,37,0.60
2008,02,07,17,38,0.00
2008,02,07,17,39,0.70
2008,02,07,17,40,0.70
2008,02,07,17,41,0.50
2008,02,07,17,42,0.50
2008,02,07,17,43,2.50
2008,02,07,17,44,0.70
2008,02,07,17,45,0.60
2008,02,07,17,46,1.30
2008,02,07,17,47,0.00
2008,02,07,17,48,0.00
2008,02,07,17,49,0.00
2008,02,07,17,50,0.00
2008,02,07,17,51,0.90
2008,02,07,17,52,0.00
2008,02,07,17,53,0.40
2008,02,07,17,54,0.50
2008,02,07,17,55,0.00
2008,02,07,17,56,0.00
2008,02,07,17,57,0.10
2008,02,07,17,58,0.00
2008,02,07,17,59,0.00
2008,02,07,18,00,0.10
2008,02,07,18,01,2.20
2008,02,07,18,02,0.10
2008,02,07,18,03,0.00
2008,02,07,18,04,0.00
2008,02,07,18,05,0.10